Observations for Trim Market St
| Time | AQI | Temp °C | Hum % | Pres Pa | CO μg/m³ | H₂S μg/m³ | NO μg/m³ | NO₂ μg/m³ | O₃ μg/m³ | SO₂ μg/m³ | PM1 μg/m³ | PM2.5 μg/m³ | PM10 μg/m³ |
|---|---|---|---|---|---|---|---|---|---|---|---|---|---|
| Tuesday 18 August 2026 | |||||||||||||
| 22:00 | 2 | 15.5 | 83 | 2,147,483,647 | 0.62 | 0 | 2.29 | 8.18 | 53.59 | 0 | 2.14 | 2.92 | 6.43 |
| 21:59 | 2 | 15.5 | 83 | 2,147,483,647 | 0.55 | 0 | 2.28 | 8.07 | 54.29 | 0 | 1.43 | 2.46 | 5.33 |
| 21:58 | 2 | 15.5 | 83 | 2,147,483,647 | 0.54 | 0 | 2.29 | 8.45 | 51.39 | 0 | 1.43 | 2.46 | 5.33 |
| 21:57 | 2 | 15.5 | 83 | 2,147,483,647 | 0.47 | 0 | 2.29 | 8.89 | 53.55 | 0 | 1.43 | 2.93 | 7.53 |
| 21:56 | 2 | 15.5 | 83 | 2,147,483,647 | 0.38 | 0 | 2.27 | 12.02 | 51.76 | 0 | 1.43 | 2.93 | 5.88 |
| 21:55 | 2 | 15.5 | 83 | 2,147,483,647 | 0.24 | 0 | 2.26 | 7.04 | 54.99 | 0 | 0.71 | 2.46 | 6.98 |
| 21:52 | 2 | 15.5 | 82 | 2,147,483,647 | 0.23 | 0 | 2.27 | 9.35 | 51.87 | 0 | 2.14 | 3.87 | 7.53 |
| 21:50 | 2 | 15.6 | 82 | 2,147,483,647 | 0.23 | 0 | 2.25 | 7.67 | 52.67 | 0 | 0 | 2.47 | 5.87 |
| 21:44 | 2 | 15.6 | 82 | 2,147,483,647 | 0.22 | 0 | 2.24 | 9.53 | 57.14 | 0 | 1.43 | 2.94 | 7.53 |
| 21:42 | 2 | 15.6 | 82 | 2,147,483,647 | 0.24 | 0 | 2.24 | 8.16 | 55.05 | 0 | 2.14 | 3.41 | 6.42 |
| 21:38 | 2 | 15.7 | 82 | 2,147,483,647 | 0.44 | 0 | 2.22 | 10.73 | 59.83 | 0 | 1.43 | 2.95 | 6.98 |
| 21:37 | 2 | 15.7 | 82 | 2,147,483,647 | 0.34 | 0 | 2.22 | 10.81 | 54.03 | 0 | 1.43 | 2.48 | 6.98 |
| 21:36 | 2 | 15.7 | 82 | 2,147,483,647 | 0.26 | 0 | 2.22 | 9.6 | 56.14 | 0 | 1.43 | 3.42 | 6.42 |
| 21:34 | 2 | 15.7 | 82 | 2,147,483,647 | 0.25 | 0 | 2.23 | 11.4 | 58.36 | 0 | 2.14 | 2.96 | 5.87 |
| 21:32 | 2 | 15.7 | 82 | 2,147,483,647 | 0.23 | 0 | 2.25 | 15.37 | 60.24 | 0 | 2.14 | 2.96 | 6.42 |
| 21:31 | 2 | 15.7 | 82 | 2,147,483,647 | 0.23 | 0 | 2.25 | 12.41 | 57.91 | 0 | 2.14 | 3.43 | 6.98 |
| 21:29 | 2 | 15.7 | 82 | 2,147,483,647 | 0.23 | 0 | 2.26 | 12.14 | 52.03 | 0 | 1.43 | 2.49 | 5.86 |
| 21:28 | 2 | 15.7 | 82 | 2,147,483,647 | 0.26 | 0 | 2.27 | 12.58 | 56.5 | 0 | 1.43 | 3.43 | 8.64 |
| 21:27 | 2 | 15.7 | 82 | 2,147,483,647 | 0.26 | 0 | 2.26 | 12.82 | 53.39 | 0 | 2.14 | 3.44 | 8.09 |
| 21:25 | 2 | 15.7 | 82 | 2,147,483,647 | 0.25 | 0 | 2.22 | 9.13 | 58.97 | 0 | 2.14 | 3.44 | 6.97 |